ARIANE 1 DEB

Satellite information

Favourite Embed

Satellite Type and Status

DEBRISIN ORBIT

Key statistics

Satellite ARIANE 1 DEB at a glance.

Uptime

14379

Days in orbit

Revolutions

≈ 14.3

Per day

Orbit

SSO

Sun Synchronous Orbit

Inclination

98.4

Latest

Satellite identification and parameters

Extended collection of information and parameters for ARIANE 1 DEB.

Object identification

Identified? True

Debris? True

Object name: ARIANE 1 DEB

International designator: 1986-019FL

Object number (NORAD): 35408

Object ID (CCSDS): 35408

Country: FRANCE (FR)

Current information (Y/N): Y

RCS size: SMALL

Orbital parameters

Period: 100.795 minutes

Inclination: 98.3779 deg

SMA: 7174.404 km

Apoapsis: 819.898 km

Periapsis: 772.641 km

RAAN: 234.881 deg

Eccentricy: 0.0032934

Argument of periapsis: 106.6855 deg

Mean anomaly: 283.7124 deg

Mean motion: 14.28643862 rev/day

Mean motion (dot): 0.00000382 rev/day2

B* drag term: 0.00016749 1/REarth

Two-line elements (TLE)

Creation date: July 5, 2025, 5:45 p.m.

Reference frame: TEME

Reference center: EARTH

Epoch: July 5, 2025, 2:08 a.m. UTC

TLE line 0: 0 ARIANE 1 DEB

TLE line 1: 1 35408U 86019FL 25186.08946096 .00000382 00000-0 16749-3 0 9991

TLE line 2: 2 35408 98.3779 234.8810 0032934 106.6855 283.7124 14.28643862975599

Live tracking on map

Real-time ground track for satellite ARIANE 1 DEB.

In-orbit conjunctions

A list of the most updated potential collisions computed for object ARIANE 1 DEB.

Target Orbit TCA Probability of collision Miss distance Type
COSMOS 2251 DEB LEO 2025-05-05 18:22:57 0.0001831694 350.0 (m) DEBRIS
CZ-4C DEB LEO 2025-04-29 03:05:50 0.0001184332 399.0 (m) DEBRIS
CZ-6A DEB LEO 2025-04-22 20:05:52 0.0001685196 202.0 (m) DEBRIS
COSMOS 1538 LEO 2025-04-11 20:07:46 0.00418575 78.0 (m) PAYLOAD
THOR ABLESTAR DEB LEO 2024-11-08 15:45:18 0.0002277927 612.0 (m) DEBRIS

Associated space launch

SPOT 1 is a French Earth observation satellite. Viking is Sweden's first satellite.

ARIANE 1 DEB was lifted into orbit during the mission ‘Ariane 1 | SPOT 1 & Viking’, on board a Ariane 1 space rocket.

The launch took place on Feb. 22, 1986, 1:44 a.m. from Ariane Launch Area 1 (ELV).

For more information about the launch, click the button.

Launch to space Ariane 1 | SPOT 1 & Viking
Ariane 1 | SPOT 1 & Viking

Agency: N/A

Status: Launch Successful

Launch date: Feb. 22, 1986, 1:44 a.m. UTC

Rocket: Ariane 1

Launch pad: Ariane Launch Area 1 (ELV)

Location: Guiana Space Centre, French Guiana

...

Latest news about this satellite

There are no fresh news available about this satellite. Check back as we update our databases every day.


Newsletter sign-up

Weekly statistics, charts and insights to help you stay on top of the space industry.